This demonstration page uses our WeatherBlox Daily Observations layout. Learn more.

38.80484, -77.04692

Hourly Observations for July 16, 2020

Temp ( °F °C ) Dew Point ( °F °C ) Humidity (%) Winds ( mph kmh ) Pressure ( in mb ) Visibility ( mi km ) Precip ( " mm )
12:52 am 00:52 Cloudy 77 25 71 21.7 82 82 SE 7 11 30.21 1023 10 16.0934 0 0
1:39 am 01:39 Cloudy 77 25 70 21.1 79 79 ESE 7 11 30.22 1023 10 16.0934 0 0
1:52 am 01:52 Cloudy 77 25 71 21.7 82 82 ESE 7 11 30.22 1023 10 16.0934 0 0
2:52 am 02:52 Cloudy 76 24.4 71 21.7 85 85 SE 5 7 30.21 1023 10 16.0934 0 0
3:52 am 03:52 Cloudy 76 24.4 71 21.7 85 85 SE 6 9 30.21 1023 10 16.0934 0 0
4:24 am 04:24 Cloudy 76 24.4 71 21.7 85 85 SE 6 9 30.2 1023 10 16.0934 0 0
4:52 am 04:52 Cloudy 76 24.4 71 21.7 85 85 SE 8 13 30.2 1023 10 16.0934 0 0
5:09 am 05:09 Cloudy 76 24.4 72 22.2 88 88 ESE 9 15 30.21 1023 10 16.0934 0 0
5:31 am 05:31 Cloudy 76 24.4 72 22.2 88 88 ESE 10 17 30.22 1023 10 16.0934 0 0
5:52 am 05:52 Cloudy 76 24.4 72 22.2 88 88 ESE 10 17 30.22 1023 10 16.0934 0 0
6:52 am 06:52 Mostly Cloudy 76 24.4 72 22.2 88 88 ESE 12 19 30.22 1023 10 16.0934 0 0
7:52 am 07:52 Mostly Cloudy 77 25 73 22.8 88 88 SE 9 15 30.23 1024 10 16.0934 0 0
8:52 am 08:52 Mostly Cloudy 79 26.1 73 22.8 82 82 ESE 12 19 30.23 1024 10 16.0934 0 0
9:33 am 09:33 Mostly Cloudy 79 26.1 72 22.2 79 79 SE 8 13 30.23 1024 10 16.0934 0 0
9:52 am 09:52 Cloudy 80 26.7 72 22.2 76 76 SE 3 6 30.23 1024 10 16.0934 0 0
10:30 am 10:30 Cloudy 81 27.2 71 21.7 72 72 SSE 9 15 30.23 1024 10 16.0934 0 0
10:52 am 10:52 Mostly Cloudy 82 27.8 71 21.7 69 69 SE 9 15 30.23 1024 10 16.0934 0 0
11:23 am 11:23 Cloudy 81 27.2 70 21.1 69 69 SE 7 11 30.24 1024 10 16.0934 0 0
11:52 am 11:52 Cloudy 82 27.8 70 21.1 67 67 SSE 6 9 30.24 1024 10 16.0934 0 0
12:52 pm 12:52 Cloudy 83 28.3 72 22.2 70 70 SE 12 19 30.23 1024 10 16.0934 0 0
1:52 pm 13:52 Partly Cloudy 86 30 70 21.1 59 59 SSE 15 24 30.21 1023 10 16.0934 0 0
2:52 pm 14:52 Mostly Cloudy 87 30.6 70 21.1 57 57 SE 15 24 30.19 1023 10 16.0934 0 0
3:52 pm 15:52 Mostly Cloudy 87 30.6 70 21.1 57 57 SSE 15 24 30.17 1022 10 16.0934 0 0
4:52 pm 16:52 Mostly Cloudy 86 30 72 22.2 63 63 SSE 13 20 30.17 1022 10 16.0934 0 0
5:52 pm 17:52 Mostly Cloudy 85 29.4 71 21.7 63 63 SSE 14 22 30.16 1021 10 16.0934 0 0
6:52 pm 18:52 Mostly Cloudy 83 28.3 70 21.1 65 65 SSE 13 20 30.15 1021 10 16.0934 0 0
7:52 pm 19:52 Mostly Cloudy 82 27.8 70 21.1 67 67 SSE 14 22 30.16 1021 10 16.0934 0 0
8:52 pm 20:52 Mostly Cloudy 80 26.7 69 20.6 69 69 SSE 13 20 30.16 1021 10 16.0934 0 0
9:52 pm 21:52 Mostly Cloudy 79 26.1 69 20.6 72 72 SSE 15 24 30.17 1022 10 16.0934 0 0
10:52 pm 22:52 Partly Cloudy 78 25.6 70 21.1 76 76 SSE 12 19 30.17 1022 10 16.0934 0 0
11:52 pm 23:52 Partly Cloudy 77 25 70 21.1 79 79 SSE 12 19 30.17 1022 10 16.0934 0 0

Powered by AerisWeather